EW5612 Weather Reports


time (UTC)temp
C
wind
direction
speed
KPH
gust
KPH
rain 1hr
cm
rain 24hr
cm
rain mn
cm
humidity
%
barometer
mb
20260506025704 25 166 0.0 0.0 0.00 0.00 0.00 86 1006.1
20260506024704 25 166 0.0 0.0 0.00 0.00 0.00 86 1006.0
20260506024204 25 166 0.0 0.0 0.00 0.00 0.00 86 1006.0
20260506023703 25 166 0.0 0.0 0.00 0.00 0.00 86 1006.0
20260506023203 25 151 0.0 0.0 0.00 0.00 0.00 86 1006.0
20260506022703 25 151 0.0 0.0 0.00 0.00 0.00 86 1005.9
20260506022203 25 181 0.0 1.6 0.00 0.00 0.00 85 1005.8
20260506021703 25 188 0.0 0.0 0.00 0.00 0.00 85 1005.7
20260506021204 25 188 0.0 0.0 0.00 0.00 0.00 85 1005.5
20260506020704 25 188 0.0 0.0 0.00 0.00 0.00 85 1005.5
20260506020203 25 188 0.0 0.0 0.00 0.00 0.00 84 1005.5
20260506015703 26 188 0.0 1.6 0.00 0.00 0.00 84 1005.5
20260506015203 26 188 0.0 1.6 0.00 0.00 0.00 84 1005.5
20260506014704 26 188 0.0 0.0 0.00 0.00 0.00 84 1005.5
20260506014203 26 188 0.0 0.0 0.00 0.00 0.00 83 1005.5
20260506013703 26 188 0.0 0.0 0.00 0.00 0.00 83 1005.5
20260506013203 26 188 0.0 0.0 0.00 0.00 0.00 82 1005.5
20260506012703 26 188 0.0 0.0 0.00 0.00 0.00 82 1005.4
20260506012204 26 188 0.0 0.0 0.00 0.00 0.00 81 1005.4
20260506011204 27 188 0.0 0.0 0.00 0.00 0.00 80 1005.3
20260506010704 27 188 0.0 0.0 0.00 0.00 0.00 80 1005.3
20260506010203 27 188 0.0 0.0 0.00 0.00 0.00 80 1005.1
20260506005704 27 188 0.0 0.0 0.00 0.00 0.00 79 1005.0
20260506005203 27 188 0.0 0.0 0.00 0.00 0.00 79 1005.0
20260506004204 27 188 0.0 0.0 0.00 0.00 0.00 78 1004.8
20260506003204 27 188 0.0 0.0 0.00 0.00 0.00 76 1004.7
20260506002203 27 188 0.0 0.0 0.00 0.00 0.00 76 1004.6
20260506001704 28 188 0.0 0.0 0.00 0.00 0.00 76 1004.6
20260506001203 28 188 0.0 0.0 0.00 0.00 0.00 75 1004.5
20260506000204 28 188 0.0 0.0 0.00 0.00 0.00 74 1004.6
20260505235703 28 188 0.0 1.6 0.00 0.00 0.00 74 1004.5
20260505235203 28 213 0.0 0.0 0.00 0.00 0.00 73 1004.5
20260505234703 28 216 0.0 4.8 0.00 0.00 0.00 73 1004.4
20260505234203 28 174 0.0 4.8 0.00 0.00 0.00 74 1004.4
20260505233704 28 187 0.0 3.2 0.00 0.00 0.00 73 1004.4
20260505233203 28 187 0.0 3.2 0.00 0.00 0.00 73 1004.4
20260505232703 28 187 0.0 0.0 0.00 0.00 0.00 73 1004.3
20260505232204 28 187 0.0 0.0 0.00 0.00 0.00 73 1004.5
20260505231704 28 187 0.0 0.0 0.00 0.00 0.00 73 1004.4
20260505230203 28 165 0.0 3.2 0.00 0.00 0.00 73 1004.3
20260505225704 28 155 0.0 3.2 0.00 0.00 0.00 73 1004.2
20260505225203 28 154 0.0 0.0 0.00 0.00 0.00 74 1004.4
20260505224704 28 160 0.0 0.0 0.00 0.00 0.00 74 1004.5
20260505224203 28 166 0.0 0.0 0.00 0.00 0.00 73 1004.5
20260505223204 28 177 0.0 0.0 0.00 0.00 0.00 74 1004.3
20260505222704 28 199 0.0 0.0 0.00 0.00 0.00 73 1004.4
20260505222203 28 184 0.0 0.0 0.00 0.00 0.00 73 1004.5
20260505221704 28 186 0.0 0.0 0.00 0.00 0.00 73 1004.5
20260505221204 28 185 0.0 0.0 0.00 0.00 0.00 73 1004.5
20260505220704 28 182 0.0 0.0 0.00 0.00 0.00 73 1004.6
20260505220204 28 150 0.0 0.0 0.00 0.00 0.00 73 1004.7
20260505215704 28 189 0.0 0.0 0.00 0.00 0.00 73 1004.9
20260505214704 28 168 0.0 0.0 0.00 0.00 0.00 73 1004.8
20260505214203 28 187 0.0 0.0 0.00 0.00 0.00 74 1004.8
20260505213704 28 176 0.0 0.0 0.00 0.00 0.00 74 1004.8
20260505212704 28 186 0.0 0.0 0.00 0.00 0.00 73 1004.9
20260505212204 28 183 0.0 0.0 0.00 0.00 0.00 73 1004.9
20260505211703 28 161 0.0 0.0 0.00 0.00 0.00 74 1005.0
20260505210703 28 162 0.0 1.6 0.00 0.00 0.00 73 1005.2
20260505210203 28 181 0.0 0.0 0.00 0.00 0.00 75 1005.3
20260505205704 28 182 0.0 0.0 0.00 0.00 0.00 74 1005.5
20260505205203 28 186 0.0 0.0 0.00 0.00 0.00 74 1005.6
20260505204704 28 180 0.0 11.3 0.00 0.00 0.00 74 1005.7
20260505204204 28 161 0.0 0.0 0.00 0.00 0.00 73 1005.8
20260505203703 28 179 0.0 0.0 0.00 0.00 0.00 73 1005.8
20260505203204 28 153 0.0 0.0 0.00 0.00 0.00 73 1006.0
20260505202203 28 175 0.0 8.0 0.00 0.00 0.00 73 1006.0
20260505201703 28 137 0.0 0.0 0.00 0.00 0.00 74 1006.0
20260505201204 28 138 0.0 1.6 0.00 0.00 0.00 75 1006.0
20260505200704 28 186 0.0 4.8 0.00 0.00 0.00 75 1006.2
20260505195704 27 170 0.0 0.0 0.00 0.00 0.00 76 1006.3
20260505195204 27 146 0.0 1.6 0.00 0.00 0.00 76 1006.3
20260505194704 27 133 0.0 0.0 0.00 0.00 0.00 77 1006.4
20260505194203 27 194 0.0 0.0 0.00 0.00 0.00 77 1006.5
20260505193203 27 160 1.6 8.0 0.00 0.00 0.00 77 1006.6
20260505192704 27 197 0.0 1.6 0.00 0.00 0.00 78 1006.7
20260505191704 27 160 0.0 4.8 0.00 0.00 0.00 79 1006.8
20260505191204 26 177 0.0 3.2 0.00 0.00 0.00 80 1006.8
20260505190204 26 180 0.0 3.2 0.00 0.00 0.00 79 1007.1
20260505185704 26 183 0.0 0.0 0.00 0.00 0.00 79 1007.1
20260505185203 26 193 0.0 1.6 0.00 0.00 0.00 80 1007.1
20260505183703 26 175 0.0 0.0 0.00 0.00 0.00 79 1007.3
20260505182704 26 172 0.0 8.0 0.00 0.00 0.00 81 1007.3
20260505181704 26 171 0.0 8.0 0.00 0.00 0.00 81 1007.6
20260505180703 25 154 1.6 3.2 0.00 0.00 0.00 83 1007.6
20260505180203 25 188 0.0 12.9 0.00 0.00 0.00 83 1007.6
20260505175203 25 184 0.0 1.6 0.00 0.00 0.00 84 1007.8
20260505174203 25 182 0.0 0.0 0.00 0.00 0.00 85 1007.9
20260505173704 24 184 0.0 1.6 0.00 0.00 0.00 86 1007.8
20260505173203 24 185 0.0 1.6 0.00 0.00 0.00 86 1007.8
20260505172704 24 160 0.0 1.6 0.00 0.00 0.00 86 1007.9
20260505172204 24 180 0.0 0.0 0.00 0.00 0.00 87 1007.9
20260505171703 24 184 0.0 0.0 0.00 0.00 0.00 87 1008.0
20260505171204 24 191 0.0 1.6 0.00 0.00 0.00 87 1007.9
20260505170704 23 183 0.0 1.6 0.00 0.00 0.00 87 1008.0
20260505170204 23 175 0.0 1.6 0.00 0.00 0.00 88 1008.0
20260505165704 23 189 0.0 0.0 0.00 0.00 0.00 88 1008.0
20260505165204 23 189 0.0 0.0 0.00 0.00 0.00 88 1008.1
20260505164703 23 167 0.0 3.2 0.00 0.00 0.00 88 1008.1
20260505164203 23 186 0.0 0.0 0.00 0.00 0.00 89 1008.2
20260505163704 23 197 0.0 0.0 0.00 0.00 0.00 89 1008.2
20260505163204 23 230 0.0 0.0 0.00 0.00 0.00 89 1008.3
20260505162704 23 194 0.0 3.2 0.00 0.00 0.00 89 1008.2
20260505162203 23 185 0.0 0.0 0.00 0.00 0.00 89 1008.2
20260505161703 23 190 0.0 0.0 0.00 0.00 0.00 90 1008.2
20260505161204 23 196 0.0 1.6 0.00 0.00 0.00 90 1008.3
20260505160703 22 192 0.0 1.6 0.00 0.00 0.00 91 1008.2
20260505160203 22 172 0.0 1.6 0.00 0.00 0.00 91 1008.3
20260505153203 22 181 0.0 1.6 0.00 0.00 0.00 92 1008.1
20260505152704 22 194 0.0 3.2 0.00 0.00 0.00 93 1008.0
20260505152204 22 201 0.0 0.0 0.00 0.00 0.00 93 1008.1
20260505151704 22 183 0.0 11.3 0.00 0.00 0.00 93 1008.0
20260505151203 22 189 0.0 1.6 0.00 0.00 0.00 93 1008.0
20260505150703 22 208 0.0 1.6 0.00 0.00 0.00 92 1008.0
20260505150204 22 177 0.0 4.8 0.00 0.00 0.00 92 1007.9
20260505140204 22 173 0.0 1.6 0.00 0.00 0.00 91 1007.7
20260505124704 21 187 0.0 4.8 0.00 0.00 0.00 91 1007.0
20260505124203 21 179 0.0 3.2 0.00 0.00 0.00 91 1006.9
20260505123704 21 182 0.0 12.9 0.00 0.00 0.00 91 1007.0
20260505123203 21 188 0.0 3.2 0.00 0.00 0.00 91 1006.9
20260505122704 21 147 0.0 4.8 0.00 0.00 0.00 92 1006.9
20260505122204 21 181 0.0 4.8 0.00 0.00 0.00 92 1007.0
20260505121704 21 178 0.0 1.6 0.00 0.00 0.00 92 1006.9
20260505121203 21 181 0.0 0.0 0.00 0.00 0.00 92 1006.8
20260505120704 21 181 0.0 4.8 0.00 0.00 0.00 92 1006.8
20260505120204 21 166 0.0 8.0 0.00 0.00 0.00 91 1006.6
20260505115704 21 195 0.0 12.9 0.00 0.00 0.00 91 1006.6
20260505115203 21 179 0.0 0.0 0.00 0.00 0.00 91 1006.7
20260505114704 21 181 0.0 4.8 0.00 0.00 0.00 91 1006.7
20260505114204 21 186 0.0 0.0 0.00 0.00 0.00 91 1006.8
20260505113703 21 187 1.6 4.8 0.00 0.00 0.00 91 1006.7
20260505113203 21 182 0.0 1.6 0.00 0.00 0.00 91 1006.7
20260505112704 21 170 0.0 1.6 0.00 0.00 0.00 91 1006.6
20260505112204 21 191 0.0 3.2 0.00 0.00 0.00 91 1006.6
20260505111703 21 193 0.0 0.0 0.00 0.00 0.00 91 1006.7
20260505111204 21 135 0.0 0.0 0.00 0.00 0.00 91 1006.7
20260505110203 21 186 0.0 4.8 0.00 0.00 0.00 91 1006.6
20260505101204 21 192 0.0 3.2 0.00 0.00 0.00 90 1006.8
20260505100704 21 173 0.0 11.3 0.00 0.00 0.00 90 1006.7
20260505095203 21 172 0.0 4.8 0.00 0.00 0.00 90 1006.9
20260505094703 21 186 0.0 12.9 0.00 0.00 0.00 91 1006.8
20260505094204 21 172 3.2 12.9 0.00 0.00 0.00 91 1007.0
20260505093703 21 178 0.0 16.1 0.00 0.00 0.00 91 1006.6
20260505092703 21 156 1.6 12.9 0.00 0.00 0.00 91 1007.0
20260505091703 20 180 1.6 14.5 0.00 0.00 0.00 91 1007.0
20260505090704 20 169 0.0 11.3 0.00 0.00 0.00 91 1007.0
20260505090203 21 172 0.0 3.2 0.00 0.00 0.00 91 1006.9
20260505085704 21 196 1.6 12.9 0.00 0.00 0.00 91 1006.9
20260505085203 21 172 0.0 4.8 0.00 0.00 0.00 90 1006.9
20260505084704 21 182 1.6 11.3 0.00 0.00 0.00 90 1007.2
20260505084204 21 186 0.0 1.6 0.00 0.00 0.00 90 1007.2
20260505083703 21 161 0.0 3.2 0.00 0.00 0.00 90 1007.4
20260505082703 21 183 0.0 1.6 0.00 0.00 0.00 90 1007.3
20260505082204 21 189 0.0 3.2 0.00 0.00 0.00 90 1007.4
20260505081703 21 181 1.6 11.3 0.00 0.00 0.00 90 1007.6
20260505081204 21 168 0.0 4.8 0.00 0.00 0.00 90 1007.5
20260505080703 21 187 0.0 9.7 0.00 0.00 0.00 90 1007.7
20260505080204 21 188 0.0 1.6 0.00 0.00 0.00 90 1007.7
20260505075703 21 180 1.6 4.8 0.00 0.00 0.00 90 1007.8
20260505075204 21 151 0.0 8.0 0.00 0.00 0.00 90 1007.8
20260505074704 21 170 0.0 1.6 0.00 0.00 0.00 90 1007.8
20260505074204 21 169 0.0 1.6 0.00 0.00 0.00 90 1007.7
20260505073703 21 188 1.6 12.9 0.00 0.00 0.00 90 1007.9
20260505073204 21 183 1.6 11.3 0.00 0.00 0.00 90 1007.9
20260505072704 21 171 0.0 4.8 0.00 0.00 0.00 90 1007.9
20260505072204 21 186 1.6 14.5 0.00 0.00 0.00 90 1008.0
20260505071704 21 188 0.0 11.3 0.00 0.00 0.00 90 1007.9
20260505071203 21 175 0.0 9.7 0.00 0.00 0.00 90 1008.1
20260505070703 21 190 0.0 14.5 0.00 0.00 0.00 90 1008.2
20260505070203 21 200 0.0 4.8 0.00 0.00 0.00 90 1008.2
20260505065703 21 196 1.6 9.7 0.00 0.00 0.00 90 1008.3
20260505065203 21 180 1.6 8.0 0.00 0.00 0.00 89 1008.4
20260505064204 21 175 0.0 0.0 0.00 0.00 0.00 89 1008.4
20260505063704 21 185 1.6 12.9 0.00 0.00 0.00 89 1008.5
20260505063204 21 168 0.0 4.8 0.00 0.00 0.00 89 1008.6
20260505062704 21 182 0.0 3.2 0.00 0.00 0.00 89 1008.7
20260505062203 21 185 0.0 1.6 0.00 0.00 0.00 89 1008.7
20260505061703 21 189 1.6 14.5 0.00 0.00 0.00 89 1008.7
20260505060703 21 132 0.0 1.6 0.00 0.00 0.00 89 1008.8
20260505060204 21 187 0.0 0.0 0.00 0.00 0.00 89 1008.7
20260505055704 21 183 1.6 14.5 0.00 0.00 0.00 89 1008.7
20260505055204 21 151 0.0 4.8 0.00 0.00 0.00 89 1008.6
20260505054704 21 156 0.0 4.8 0.00 0.00 0.00 88 1008.6
20260505054203 21 185 0.0 4.8 0.00 0.00 0.00 88 1008.5
20260505053704 21 177 0.0 0.0 0.00 0.00 0.00 88 1008.6
20260505053203 21 165 0.0 3.2 0.00 0.00 0.00 88 1008.6
20260505052704 21 175 0.0 1.6 0.00 0.00 0.00 88 1008.6
20260505051203 21 182 0.0 8.0 0.00 0.00 0.00 88 1008.6
20260505050704 21 152 0.0 4.8 0.00 0.00 0.00 87 1008.6
20260505050204 21 160 0.0 1.6 0.00 0.00 0.00 87 1008.5
20260505041704 21 160 0.0 0.0 0.00 0.00 0.00 85 1008.8
20260505041204 21 163 0.0 0.0 0.00 0.00 0.00 85 1008.9
20260505040703 22 167 0.0 1.6 0.00 0.00 0.00 85 1009.0
20260505040203 22 161 0.0 3.2 0.00 0.00 0.00 84 1008.9
20260505035703 22 177 0.0 4.8 0.00 0.00 0.00 84 1008.8
20260505035204 22 142 0.0 3.2 0.00 0.00 0.00 84 1008.8
20260505034703 22 158 0.0 0.0 0.00 0.00 0.00 84 1008.8
20260505034203 22 133 0.0 1.6 0.00 0.00 0.00 83 1008.7
20260505033703 22 168 0.0 9.7 0.00 0.00 0.00 83 1008.7
20260505033203 22 164 0.0 1.6 0.00 0.00 0.00 83 1008.8
20260505032704 22 167 0.0 0.0 0.00 0.00 0.00 83 1008.7
20260505032203 22 135 0.0 0.0 0.00 0.00 0.00 83 1008.8
20260505031704 22 177 0.0 1.6 0.00 0.00 0.00 82 1008.9
20260505031204 22 150 0.0 0.0 0.00 0.00 0.00 82 1009.0
20260505030704 22 137 0.0 0.0 0.00 0.00 0.00 82 1009.0